Regional Weather Roundup
Issued by NWS

Home | Current Version | Previous Version | Text Only | Print | Product List | Glossary Off
Versions: 1 2 3 4 5 6 7 8 9 10 11 12 13 14 15 16 17 18 19 20 21 22 23 24 25 26 27 28 29 30 31 32 33 34 35 36 37 38 39 40 41 42 43 44 45 46 47 48 49 50

000
ASUS43 KLMK 250610
RWRKY
KENTUCKY REGIONAL WEATHER ROUNDUP
NATIONAL WEATHER SERVICE LOUISVILLE KY
200 AM EDT WED APR 25 2018

NOTE "FAIR" INDICATES FEW OR NO CLOUDS BELOW 12,000 FEET
WITH NO SIGNIFICANT WEATHER AND/OR OBSTRUCTIONS TO VISIBILITY.

KYZ001>023-026-027-061>063-070>075-250700-
WESTERN AND SOUTH CENTRAL KENTUCKY

CITY           SKY/WX    TMP DP  RH WIND       PRES   REMARKS
PADUCAH        FAIR      54  51  90 W5        29.98S
HENDERSON      FOG       50  50 100 SW3       29.97S VSB 1/4
OWENSBORO      CLOUDY    54  53  97 NW3       29.96F FOG
HOPKINSVILLE   NOT AVBL
BOWLING GREEN  CLOUDY    56  55  97 NW3       29.95F
GLASGOW        CLOUDY    55  52  92 NW3       29.93F
$$

KYZ024-025-028>034-038-045-046-053-250700-
NORTH CENTRAL KENTUCKY

CITY           SKY/WX    TMP DP  RH WIND       PRES   REMARKS
LOUISVILLE/SDF CLOUDY    56  54  93 NW6       29.92F
LOUISVILLE/LOU CLOUDY    56  55  97 NW3       29.93S
FORT KNOX      NOT AVBL
$$

KYZ035>037-039>044-047>052-055>060-089>105-250700-
NORTHEAST KENTUCKY

CITY           SKY/WX    TMP DP  RH WIND       PRES   REMARKS
LEXINGTON      CLOUDY    54  51  90 NW6       29.91S
COVINGTON      CLOUDY    53  51  93 N6        29.90S
FRANKFORT      CLOUDY    55  51  86 NW3       29.90S
$$

KYZ054-064>069-076>088-106>120-250700-
SOUTHEAST KENTUCKY

CITY           SKY/WX    TMP DP  RH WIND       PRES   REMARKS
JACKSON        CLOUDY    54  52  93 W5        29.87F
LONDON         CLOUDY    55  53  93 NW5       29.89F
SOMERSET       CLOUDY    54  54 100 W3        29.92F
MIDDLESBORO    DRIZZLE   55  55 100 CALM      29.89S
MONTICELLO     CLOUDY    55  53  93 NW5       29.93F
$$





USA.gov is the U.S. government's official web portal to all federal, state and local government web resources and services.